Погода в Острожке

Россия / Пермский край     57°40′13″N   55°10′15″E
темп.,
°C
ветер,
м/с
пор.,
м/с
влажн.,
%
обл.,
%
осадки,
мм/ч
давл.,
гПа
погр.,
м
8 мая, сб
сб823:00+14ююз31167100 0.0 1015413
02:00+12ю277494 0.0 1015145
05:00+11ю377793 0.0 1016190
08:00+13ююз2370100 0.0 1016213
11:00+17ююз3453100 0.0 1016874
14:00+19юз4543100 0.1 10161910
17:00+16сз3561100 0.1 1017471
20:00+14всв137680 0.3 101695
9 мая, вс
вс923:00+11всв008336 0.3 101710
02:00+9в11906 0.0 101710
05:00+9юв11916 0.0 101710
08:00+13юв12730 0.0 1017193
11:00+18ююв34500 0.0 10171060
14:00+21ю46392 0.0 10172182
17:00+21ю453514 0.0 10172292
20:00+18юв245477 0.0 101785
10 мая, пн
пн1023:00+15ю226018 0.0 101815
02:00+12ююв22703 0.0 101910
05:00+11ююв22744 0.0 102015
08:00+15ююв36597 0.0 1020233
11:00+21ю464055 0.0 10211120
14:00+22ююз4532100 0.0 10212538
17:00+22ююз453294 0.0 10212358
20:00+15сз4873100 0.1 1023404
11 мая, вт
вт1123:00+12с3791100 0.8 1024345
02:00+10с4892100 1.8 1026510
05:00+9с488978 1.9 1028524
08:00+8с468024 0.0 1030554
11:00+12с46565 0.0 1030925
14:00+16с453343 0.0 10301281
17:00+17с44306 0.0 10301444
20:00+14с24455 0.0 1030112
12 мая, ср
ср1223:00+10ссв115449 0.0 103110
02:00+9зсз115810 0.0 103210
05:00+8зсз1163100 0.0 103210
08:00+12зсз1358100 0.0 1032167
11:00+17зсз2346100 0.0 1031739
14:00+21зсз33415 0.0 10301382
17:00+23сз2439100 0.0 10291790
20:00+19сз1155100 0.0 102911